Newberry, SC

12:02 AM EDT on June 29, 2017 (GMT -0400)
Newberry

Weather History for KEOE - October, 2013

Change the Weather History Date:

Sunday, October 13, 2013

  Actual Average (KFDW) Record (KFDW)
Temperature  
Mean Temperature 66 °F -  
Max Temperature 73 °F 75 °F 82 °F (2010)
Min Temperature 60 °F 50 °F 50 °F (2016)
Cooling Degree Days 2    
Growing Degree Days 16 (Base 50)    
Moisture  
Dew Point 63 °F    
Average Humidity 89    
Maximum Humidity 100    
Minimum Humidity 69    
Precipitation  
Precipitation 0.00 in - - ()
Sea Level Pressure  
Sea Level Pressure 30.18 in    
Wind  
Wind Speed 5 mph (NNE)    
Max Wind Speed 13 mph    
Max Gust Speed 16 mph    
Visibility 10 miles    
Events      
Averages and records for this station are not official NWS values.
T = Trace of Precipitation, MM = Missing Value Source: NWS Daily Summary

Daily Weather History Graph

Daily Weather History Graph

Search for Another Location

Airport or City:

Trip Planner

Search our weather history database for the weather conditions in past years. The results will help you decide how hot, cold, wet, or windy it might be!

Date:

Astronomy

Oct. 13, 2013 Rise Set
Actual Time 7:30 AM EDT 6:54 PM EDT
Civil Twilight 7:05 AM EDT 7:19 PM EDT
Nautical Twilight 6:36 AM EDT 7:48 PM EDT
Astronomical Twilight 6:07 AM EDT 8:17 PM EDT
Moon 3:32 PM EDT (10/13) 1:52 AM EDT (10/13)
Length of Visible Light 12h 14m
Length of Day
11h 23m
Waxing Gibbous, 69% of the Moon is Illuminated
Oct 13
Waxing Gibbous
Oct 18
Full
Oct 26
Last Quarter
Nov 3
New
Nov 10
First Quarter

Hourly Weather History & Observations

Time (EDT) Temp. Dew Point Humidity Pressure Visibility Wind Dir Wind Speed Gust Speed Precip Events Conditions
12:15 AM 64.4 °F 64.4 °F 100% 30.12 in 10.0 mi Calm Calm - N/A   Overcast
12:35 AM 64.4 °F 64.4 °F 100% 30.12 in 10.0 mi Calm Calm - N/A   Overcast
12:55 AM 64.4 °F 64.4 °F 100% 30.12 in 10.0 mi NE 3.5 mph - N/A   Mostly Cloudy
1:15 AM 62.6 °F 62.6 °F 100% 30.13 in 10.0 mi NE 4.6 mph - N/A   Scattered Clouds
1:35 AM 64.4 °F 62.6 °F 94% 30.13 in 10.0 mi NE 4.6 mph - N/A   Mostly Cloudy
1:55 AM 64.4 °F 62.6 °F 94% 30.13 in 10.0 mi NE 4.6 mph - N/A   Overcast
2:15 AM 64.4 °F 62.6 °F 94% 30.14 in 7.0 mi NE 5.8 mph - N/A   Overcast
2:35 AM 64.4 °F 62.6 °F 94% 30.14 in 10.0 mi NE 6.9 mph - N/A   Overcast
2:55 AM 64.4 °F 62.6 °F 94% 30.14 in 10.0 mi NE 5.8 mph - N/A   Mostly Cloudy
3:15 AM 64.4 °F 62.6 °F 94% 30.14 in 10.0 mi NNE 3.5 mph - N/A   Mostly Cloudy
3:35 AM 64.4 °F 64.4 °F 100% 30.14 in 10.0 mi NNE 5.8 mph - N/A   Overcast
3:55 AM 64.4 °F 62.6 °F 94% 30.14 in 10.0 mi NE 8.1 mph - N/A   Overcast
4:15 AM 64.4 °F 62.6 °F 94% 30.14 in 10.0 mi NE 4.6 mph - N/A   Mostly Cloudy
4:35 AM 64.4 °F 62.6 °F 94% 30.14 in 10.0 mi NE 4.6 mph - N/A   Scattered Clouds
4:55 AM 62.6 °F 62.6 °F 100% 30.14 in 10.0 mi North 3.5 mph - N/A   Scattered Clouds
5:15 AM 62.6 °F 62.6 °F 100% 30.15 in 10.0 mi Calm Calm - N/A   Mostly Cloudy
5:35 AM 62.6 °F 62.6 °F 100% 30.15 in 10.0 mi Calm Calm - N/A   Overcast
5:55 AM 62.6 °F 62.6 °F 100% 30.15 in 10.0 mi NNE 3.5 mph - N/A   Overcast
6:15 AM 62.6 °F 62.6 °F 100% 30.16 in 10.0 mi NNE 3.5 mph - N/A   Mostly Cloudy
6:35 AM 62.6 °F 62.6 °F 100% 30.16 in 10.0 mi Calm Calm - N/A   Mostly Cloudy
6:55 AM 60.8 °F 60.8 °F 100% 30.17 in 10.0 mi North 3.5 mph - N/A   Mostly Cloudy
7:15 AM 62.6 °F 62.6 °F 100% 30.17 in 7.0 mi North 3.5 mph - N/A   Mostly Cloudy
7:35 AM 62.6 °F 62.6 °F 100% 30.17 in 10.0 mi North 3.5 mph - N/A   Overcast
7:55 AM 62.6 °F 62.6 °F 100% 30.18 in 10.0 mi NNE 3.5 mph - N/A   Overcast
8:15 AM 62.6 °F 62.6 °F 100% 30.18 in 10.0 mi Calm Calm - N/A   Overcast
8:35 AM 64.4 °F 64.4 °F 100% 30.19 in 10.0 mi Calm Calm - N/A   Overcast
8:55 AM 64.4 °F 64.4 °F 100% 30.20 in 10.0 mi North 4.6 mph - N/A   Overcast
9:15 AM 64.4 °F 64.4 °F 100% 30.21 in 10.0 mi North 5.8 mph - N/A   Overcast
9:55 AM 68.0 °F 66.2 °F 94% 30.21 in 10.0 mi NE 5.8 mph - N/A   Overcast
10:15 AM 68.0 °F 66.2 °F 94% 30.22 in 10.0 mi NE 6.9 mph - N/A   Overcast
10:35 AM 68.0 °F 66.2 °F 94% 30.22 in 10.0 mi NNE 9.2 mph - N/A   Overcast
10:55 AM 69.8 °F 64.4 °F 83% 30.22 in 10.0 mi North 9.2 mph - N/A   Overcast
11:15 AM 69.8 °F 64.4 °F 83% 30.22 in 10.0 mi North 9.2 mph - N/A   Overcast
12:15 PM 71.6 °F 62.6 °F 73% 30.21 in 10.0 mi North 9.2 mph - N/A   Overcast
12:35 PM 71.6 °F 62.6 °F 73% 30.21 in 10.0 mi North 10.4 mph - N/A   Overcast
12:55 PM 71.6 °F 62.6 °F 73% 30.21 in 10.0 mi NNE 10.4 mph - N/A   Overcast
1:15 PM 73.4 °F 62.6 °F 69% 30.20 in 10.0 mi NNE 5.8 mph - N/A   Overcast
1:35 PM 73.4 °F 62.6 °F 69% 30.19 in 10.0 mi North 6.9 mph - N/A   Overcast
1:55 PM 73.4 °F 62.6 °F 69% 30.19 in 10.0 mi North 10.4 mph - N/A   Overcast
2:15 PM 73.4 °F 62.6 °F 69% 30.18 in 10.0 mi NNE 11.5 mph - N/A   Overcast
2:35 PM 71.6 °F 62.6 °F 73% 30.18 in 10.0 mi NNE 6.9 mph - N/A   Overcast
2:55 PM 73.4 °F 62.6 °F 69% 30.17 in 10.0 mi NNE 12.7 mph - N/A   Overcast
3:15 PM 73.4 °F 62.6 °F 69% 30.17 in 10.0 mi NNE 9.2 mph 16.1 mph N/A   Overcast
3:35 PM 71.6 °F 62.6 °F 73% 30.17 in 10.0 mi NNE 11.5 mph - N/A   Overcast
3:55 PM 73.4 °F 62.6 °F 69% 30.17 in 10.0 mi NNE 10.4 mph - N/A   Mostly Cloudy
4:15 PM 73.4 °F 62.6 °F 69% 30.17 in 10.0 mi NNE 10.4 mph - N/A   Mostly Cloudy
4:35 PM 71.6 °F 62.6 °F 73% 30.17 in 10.0 mi NE 8.1 mph - N/A   Overcast
4:55 PM 71.6 °F 62.6 °F 73% 30.17 in 10.0 mi NE 8.1 mph - N/A   Overcast
5:15 PM 71.6 °F 62.6 °F 73% 30.17 in 10.0 mi NE 6.9 mph - N/A   Overcast
5:35 PM 71.6 °F 62.6 °F 73% 30.17 in 10.0 mi NE 8.1 mph - N/A   Overcast
5:55 PM 71.6 °F 62.6 °F 73% 30.17 in 10.0 mi NNE 10.4 mph 16.1 mph N/A   Overcast
6:15 PM 69.8 °F 62.6 °F 78% 30.18 in 10.0 mi NE 6.9 mph - N/A   Overcast
6:35 PM 69.8 °F 62.6 °F 78% 30.18 in 10.0 mi NNE 8.1 mph - N/A   Overcast
6:55 PM 69.8 °F 62.6 °F 78% 30.19 in 10.0 mi NE 8.1 mph - N/A   Overcast
7:15 PM 68.0 °F 62.6 °F 83% 30.19 in 10.0 mi NE 4.6 mph - N/A   Overcast
7:35 PM 68.0 °F 62.6 °F 83% 30.20 in 10.0 mi NE 5.8 mph - N/A   Overcast
7:55 PM 68.0 °F 64.4 °F 88% 30.20 in 10.0 mi NNE 6.9 mph - N/A   Overcast
8:15 PM 68.0 °F 64.4 °F 88% 30.21 in 10.0 mi NNE 4.6 mph - N/A   Overcast
8:35 PM 66.2 °F 62.6 °F 88% 30.21 in 10.0 mi NE 3.5 mph - N/A   Scattered Clouds
8:55 PM 64.4 °F 62.6 °F 94% 30.21 in 10.0 mi Calm Calm - N/A   Clear
9:15 PM 64.4 °F 62.6 °F 94% 30.21 in 10.0 mi North 3.5 mph - N/A   Clear
9:35 PM 64.4 °F 64.4 °F 100% 30.21 in 10.0 mi NNE 5.8 mph - N/A   Clear
9:55 PM 64.4 °F 62.6 °F 94% 30.22 in 10.0 mi NNE 4.6 mph - N/A   Clear
10:15 PM 64.4 °F 62.6 °F 94% 30.22 in 10.0 mi NNE 5.8 mph - N/A   Clear
10:35 PM 62.6 °F 62.6 °F 100% 30.23 in 10.0 mi NNE 5.8 mph - N/A   Scattered Clouds
10:55 PM 64.4 °F 64.4 °F 100% 30.23 in 10.0 mi NE 8.1 mph - N/A   Clear
11:15 PM 64.4 °F 62.6 °F 94% 30.22 in 10.0 mi NNE 6.9 mph - N/A   Scattered Clouds
11:35 PM 64.4 °F 64.4 °F 100% 30.23 in 10.0 mi NE 6.9 mph - N/A   Mostly Cloudy
11:55 PM 64.4 °F 64.4 °F 100% 30.22 in 10.0 mi NE 5.8 mph - N/A   Overcast